Vorticity
6 6 -2 2 8 7 10 20 8 18 4 16 14 13 6 17 8 11 10 10 9 10 6 6 5 5 5 5 6 8 8 7 8 8 8 8 8 7 7 8 7 7 7 7
10 3 7 12 5 7 6 -1 6 7 10 12 10 9 4 3 8 -1 0 2 5 6 5 5 4 5 6 5 7 8 7 7 7 7 8 8 8 7 8 8 8 7 7 7
-1 -10 34 7 7 1 6 5 6 -9 13 11 3 23 6 10 3 -1 -2 -0 5 7 5 5 4 6 8 6 6 9 8 6 6 7 8 8 8 8 8 8 8 7 7 7
24 7 -2 -5 25 9 17 17 3 -2 1 -2 20 15 24 19 6 5 5 3 1 7 9 7 6 5 7 7 5 7 7 6 6 6 7 7 7 7 7 7 7 7 7 7
-0 14 22 9 3 9 7 7 15 16 17 8 22 -4 25 0 17 20 9 6 9 8 5 9 8 8 6 5 5 5 7 7 7 7 7 7 8 8 7 8 8 8 8 8
-3 -1 9 15 14 9 11 8 22 20 11 16 -4 -10 32 10 9 9 7 13 15 17 19 15 7 6 5 4 4 5 7 8 8 8 8 8 7 8 8 8 7 7 8 8
21 9 4 6 16 17 11 20 6 6 7 6 26 14 -24 4 14 8 7 10 9 8 13 15 20 17 9 7 6 6 8 11 11 9 8 8 8 8 8 8 8 8 8 8
1 38 5 8 -1 -11 11 -6 -21 7 1 20 18 18 2 32 -4 13 10 15 13 12 11 13 15 15 11 8 8 7 8 10 11 10 9 8 8 9 9 9 8 8 8 8
14 11 18 5 14 3 29 7 -3 -10 9 9 9 22 8 15 16 17 6 14 13 15 17 18 19 16 11 9 8 7 8 10 10 10 10 9 9 10 10 10 9 9 8 8
10 5 18 21 19 11 -21 37 20 6 10 6 26 8 -29 25 7 14 17 7 7 11 14 14 14 12 10 9 8 10 11 11 10 10 11 11 11 11 11 12 11 10 9 9
-13 -5 15 22 20 14 6 -2 -7 13 -22 8 12 19 17 18 7 12 19 15 13 11 9 9 10 9 9 10 11 11 10 9 9 10 11 11 12 12 12 11 11 10 10 10
5 10 14 3 7 17 21 5 -6 -26 21 13 -9 8 17 15 23 14 12 12 12 9 9 8 8 9 8 8 7 8 10 12 15 15 13 12 10 10 11 11 10 10 9 9
44 24 5 27 35 14 16 10 6 -6 -6 10 -11 8 22 2 11 12 11 13 11 10 9 9 8 7 9 13 17 16 12 7 3 1 -1 -1 -1 -1 -2 -1 -0 1 2 3
15 1 -19 -17 -1 32 30 7 16 3 2 9 -11 -9 5 10 11 11 14 8 8 9 10 11 13 13 13 10 5 2 0 -1 -2 -3 -4 -2 4 7 8 10 11 11 11 10
-0 5 12 -14 -1 6 8 16 39 18 -9 -10 20 20 11 8 13 16 7 11 9 9 9 7 7 6 5 3 0 -1 -2 -2 1 13 18 18 16 13 10 8 7 8 8 9
6 -2 17 13 17 4 0 5 7 15 17 18 -19 -12 6 4 10 10 17 11 7 5 4 5 4 3 2 -1 -1 0 9 15 12 10 7 5 7 9 10 11 11 10 9 7
15 16 0 16 5 17 53 16 0 5 8 6 2 6 2 10 15 8 8 6 4 4 5 7 4 5 3 4 8 12 8 6 6 6 7 7 7 7 7 6 6 7 7 7
-7 -8 0 7 12 14 14 -1 15 25 11 9 6 6 13 23 17 12 14 5 3 6 6 2 8 6 7 10 7 5 6 7 7 5 5 6 6 6 6 6 5 5 5 6
11 18 10 -10 13 -25 -2 3 28 25 17 40 39 8 14 10 17 11 13 9 6 5 -1 10 12 10 8 4 6 8 7 5 5 6 7 6 6 6 6 7 7 6 5 4
12 13 -10 17 4 1 22 36 25 4 12 13 10 32 21 18 10 10 12 21 4 2 8 12 11 5 8 9 6 6 6 6 7 8 9 9 9 9 9 11 14 18 19 19
21 16 2 2 -8 18 3 3 12 -4 -4 17 13 10 13 13 14 18 24 20 25 23 13 6 10 8 5 6 7 7 7 9 8 8 8 9 11 15 17 13 9 10 11 11
9 12 25 15 8 23 22 20 -5 10 11 14 13 12 12 13 12 15 18 12 8 8 8 6 6 6 7 7 9 11 11 9 8 7 11 17 15 12 12 11 10 10 10 11
12 -19 2 -9 16 4 15 25 31 5 4 7 5 14 16 13 12 9 12 6 4 3 3 6 9 10 11 10 9 7 7 6 6 14 18 13 9 10 9 10 12 11 11 13
14 6 3 8 13 6 3 7 3 2 6 9 12 11 12 13 16 6 2 2 0 3 7 9 9 6 8 9 8 6 5 10 18 14 13 11 10 10 8 8 9 9 8 8
7 8 11 11 8 6 7 8 12 10 9 13 13 16 13 7 2 1 3 2 3 3 6 9 8 8 7 6 9 13 13 14 14 12 11 9 9 9 10 8 9 12 9 9
8 7 8 1 17 13 8 8 10 14 16 13 5 4 7 7 7 4 6 7 8 12 15 7 7 9 6 11 12 13 12 10 9 10 10 10 9 9 11 11 11 10 10 9
Height
3085 3086 3082 3087 3091 3095 3095 3095 3097 3097 3096 3097 3098 3099 3100 3100 3101 3102 3104 3105 3107 3109 3112 3114 3115 3117 3118 3120 3122 3124 3127 3128 3129 3131 3133 3134 3136 3139 3141 3144 3146 3148 3150 3152
3081 3077 3082 3085 3086 3089 3090 3091 3094 3093 3094 3095 3095 3094 3096 3096 3097 3099 3101 3102 3104 3106 3108 3109 3111 3113 3115 3117 3119 3121 3123 3125 3126 3128 3130 3132 3134 3136 3138 3141 3143 3145 3147 3150
3074 3076 3077 3078 3081 3083 3085 3086 3089 3092 3091 3091 3092 3089 3090 3090 3092 3094 3096 3098 3099 3101 3103 3105 3107 3109 3112 3113 3115 3118 3120 3121 3122 3125 3127 3129 3131 3133 3135 3137 3140 3142 3144 3147
3070 3072 3072 3073 3074 3079 3079 3081 3085 3086 3089 3089 3088 3085 3085 3084 3086 3088 3090 3092 3094 3096 3097 3100 3102 3104 3107 3109 3111 3113 3115 3116 3118 3121 3123 3125 3127 3129 3131 3134 3136 3138 3141 3144
3063 3063 3066 3067 3070 3073 3076 3077 3080 3082 3084 3084 3083 3086 3079 3078 3078 3080 3082 3085 3087 3089 3091 3093 3097 3100 3102 3104 3106 3108 3110 3112 3114 3116 3119 3121 3123 3126 3128 3130 3132 3135 3137 3140
3058 3059 3062 3061 3064 3068 3071 3074 3077 3078 3081 3079 3077 3080 3071 3071 3073 3073 3076 3078 3080 3082 3084 3086 3090 3093 3095 3098 3101 3103 3106 3108 3110 3112 3114 3117 3119 3122 3124 3126 3128 3130 3133 3135
3051 3054 3055 3058 3060 3062 3066 3070 3075 3079 3078 3070 3069 3072 3065 3064 3066 3067 3068 3071 3073 3075 3077 3080 3083 3086 3089 3093 3096 3099 3102 3104 3106 3108 3110 3112 3114 3117 3119 3121 3123 3126 3128 3130
3047 3050 3049 3050 3053 3056 3059 3063 3064 3064 3063 3060 3064 3060 3056 3056 3059 3060 3061 3063 3066 3069 3072 3075 3077 3080 3084 3088 3092 3095 3097 3100 3102 3103 3105 3107 3110 3112 3114 3117 3119 3121 3123 3125
3043 3044 3041 3043 3047 3053 3054 3055 3060 3060 3061 3061 3056 3053 3052 3050 3050 3052 3055 3058 3060 3063 3066 3069 3072 3076 3080 3084 3087 3090 3093 3095 3097 3099 3101 3103 3105 3108 3110 3112 3114 3115 3117 3119
3037 3037 3036 3038 3043 3046 3048 3051 3057 3058 3059 3056 3047 3047 3043 3043 3044 3046 3049 3053 3056 3059 3062 3065 3068 3072 3076 3080 3083 3085 3088 3090 3092 3094 3097 3099 3101 3103 3105 3107 3109 3111 3112 3114
3031 3033 3035 3036 3035 3037 3041 3043 3046 3049 3049 3044 3040 3040 3038 3040 3042 3044 3046 3049 3052 3056 3059 3062 3066 3069 3073 3076 3078 3081 3083 3085 3087 3090 3092 3094 3096 3098 3100 3102 3103 3105 3107 3108
3024 3028 3029 3031 3030 3032 3034 3035 3039 3040 3041 3040 3040 3036 3036 3036 3038 3040 3043 3045 3049 3052 3055 3059 3062 3065 3068 3071 3074 3077 3079 3081 3083 3086 3088 3090 3092 3094 3095 3097 3098 3099 3100 3102
3019 3022 3025 3026 3029 3026 3025 3026 3030 3033 3035 3033 3036 3032 3033 3034 3035 3037 3040 3043 3046 3049 3052 3055 3058 3061 3064 3067 3070 3073 3075 3078 3081 3083 3084 3086 3088 3089 3090 3091 3092 3093 3094 3095
3014 3014 3015 3015 3014 3015 3016 3018 3022 3027 3028 3027 3025 3027 3030 3031 3033 3034 3036 3039 3042 3045 3048 3051 3054 3056 3060 3063 3066 3069 3072 3074 3076 3078 3079 3080 3081 3082 3083 3084 3084 3085 3086 3086
3011 3010 3011 3010 3011 3012 3013 3014 3015 3016 3019 3021 3021 3022 3026 3028 3030 3031 3033 3035 3038 3041 3044 3047 3050 3053 3056 3059 3062 3064 3066 3068 3070 3071 3072 3072 3073 3075 3076 3076 3077 3077 3077 3078
3005 3005 3006 3007 3008 3009 3009 3009 3011 3011 3011 3012 3015 3016 3020 3023 3024 3025 3028 3030 3033 3036 3040 3043 3046 3048 3051 3054 3057 3058 3060 3061 3062 3063 3064 3065 3066 3067 3067 3068 3069 3069 3069 3070
3000 3001 3004 3004 3005 3005 3002 2999 3002 3003 3004 3008 3006 3009 3013 3015 3017 3020 3023 3026 3030 3033 3035 3038 3041 3043 3045 3048 3049 3051 3052 3053 3054 3055 3056 3057 3058 3058 3059 3059 3060 3060 3060 3060
2995 2998 3001 3001 3003 3000 2990 2992 2992 2993 2994 2996 2999 3002 3005 3009 3012 3015 3018 3022 3025 3027 3030 3032 3035 3037 3039 3040 3042 3043 3044 3045 3046 3047 3048 3049 3049 3050 3050 3050 3050 3050 3050 3050
2990 2993 2995 2995 2995 2989 2986 2986 2986 2986 2988 2988 2991 2995 2998 3002 3005 3009 3013 3015 3018 3021 3024 3026 3027 3030 3031 3033 3035 3036 3037 3038 3038 3038 3039 3040 3040 3040 3040 3041 3041 3040 3040 3040
2983 2986 2990 2989 2988 2983 2980 2980 2981 2983 2983 2985 2986 2988 2992 2995 2997 3001 3004 3009 3012 3014 3016 3018 3021 3023 3025 3026 3027 3028 3028 3029 3029 3029 3030 3030 3029 3030 3030 3030 3030 3029 3028 3028
2975 2979 2980 2982 2982 2977 2978 2978 2978 2980 2983 2980 2982 2984 2987 2989 2992 2996 2999 3002 3004 3007 3010 3012 3014 3016 3018 3018 3019 3019 3019 3020 3020 3020 3020 3020 3019 3019 3018 3018 3018 3018 3017 3017
2970 2972 2973 2978 2979 2976 2972 2973 2977 2975 2974 2977 2979 2981 2983 2985 2987 2990 2993 2996 2999 3002 3004 3006 3008 3009 3009 3010 3010 3010 3010 3010 3010 3010 3010 3009 3009 3008 3008 3008 3008 3007 3006 3006
2968 2967 2967 2970 2968 2967 2967 2969 2970 2971 2972 2974 2976 2978 2980 2981 2983 2985 2988 2991 2993 2995 2997 2998 2999 2999 3000 3000 3000 3000 3000 3000 3000 2999 2999 2999 2999 2998 2997 2997 2996 2996 2995 2994
2962 2962 2963 2965 2963 2964 2964 2966 2967 2968 2969 2970 2971 2973 2974 2976 2978 2980 2982 2984 2986 2987 2988 2989 2989 2990 2990 2990 2990 2990 2990 2990 2989 2989 2989 2989 2989 2988 2987 2987 2986 2986 2985 2984
2958 2959 2958 2958 2958 2959 2959 2960 2961 2962 2964 2965 2966 2967 2969 2971 2973 2974 2975 2976 2978 2979 2979 2980 2980 2981 2981 2981 2980 2980 2980 2979 2979 2979 2979 2978 2978 2978 2977 2977 2976 2975 2975 2974
2952 2953 2954 2952 2953 2952 2953 2954 2954 2956 2957 2959 2960 2962 2964 2965 2966 2967 2968 2969 2970 2970 2971 2971 2971 2971 2971 2970 2970 2969 2969 2969 2969 2969 2968 2968 2967 2966 2966 2965 2965 2965 2964 2963